Location: *
(51.1248°S, 108.4023°W)
Time: 20:31:39
(UTC+00:00)

Cosmos 1937 Rocket - Pass Details

Date: 20 October 2021
Orbit: 746 x 781 km, 74.0° (Epoch: 03 December)

Event Time Altitude Azimuth Distance (km) Brightness Sun altitude
Rises 10:26:27 0° 16° (NNE) 3,267 6.6 -13.8°
Reaches altitude 10° 10:29:13 10° 30° (NNE) 2,349 6.0 -13.4°
Maximum altitude 10:33:26 24° 82° (E) 1,588 5.7 -12.9°
Drops below altitude 10° 10:37:41 10° 134° (SE) 2,368 7.5 -12.3°
Sets 10:40:28 0° 147° (SSE) 3,300 8.2 -12.0°
